Weather observations for the past three days for
Parsons, Tri-City Airport
Metric (Imperial)
Date Time (cdt) Wind (kph) Vis. (km) Weather Sky Cond. Temperature (ºC) Relative Humidity Wind Chill (°C) Heat Index (°C) Pressure Precipitation (cm)
Air Dwpt 6 hour altimeter (cm) sea level (mb) 1 hr 3 hr 6 hr
Max. Min.
15 17:52 S 24 G 39 16.09 Fair CLR 36.7 22.2 43% 42 75.72 1008.2
15 16:52 S 20 G 37 16.09 Fair CLR 37.2 22.8 43% 43 75.77 1008.7
15 15:52 S 20 G 41 16.09 Fair CLR 37.8 22.8 42% 44 75.82 1009.3
15 14:52 S 19 G 35 16.09 Fair CLR 36.1 22.8 46% 42 75.84 1009.9
15 13:52 S 20 G 35 16.09 Fair CLR 35.6 22.8 48% 41 75.87 1010.2
15 12:52 S 22 G 37 16.09 Fair CLR 35.6 22.2 35.6 23.9 46% 40 75.9 1010.4
15 11:52 S 19 G 30 16.09 Fair CLR 33.9 22.8 52% 39 75.95 1011.2
15 10:52 S 19 G 33 16.09 Fair CLR 31.7 22.2 57% 36 76 1012.0
15 09:52 SW 17 G 37 16.09 Fair CLR 30 22.2 63% 33 76.02 1012.3
15 08:52 S 24 G 37 16.09 Fair CLR 28.3 22.2 70% 31 76.07 1013.0
15 07:52 S 13 16.09 Fair CLR 25.6 22.2 82% 27 76.07 1013.1
15 06:52 S 9 16.09 Fair CLR 24.4 21.7 27.2 23.9 85% 25 76.07 1012.8
15 05:52 S 7 16.09 Fair CLR 24.4 21.7 85% 25 76.07 1012.8
15 04:52 S 6 16.09 Fair CLR 25 21.7 82% 26 76.02 1012.2
15 03:52 S 6 16.09 Fair CLR 25.6 21.7 79% 27 76 1012.0
15 02:52 S 7 16.09 Fair CLR 26.1 22.2 79% 28 76.05 1012.5
15 01:52 Calm 16.09 Fair CLR 26.1 22.2 79% 28 76.1 1013.1
15 00:52 S 6 16.09 Fair CLR 27.2 22.2 34.4 27.2 74% 30 76.12 1013.4
14 23:52 S 9 16.09 Fair CLR 28.3 22.8 72% 32 76.1 1013.2
14 22:52 S 13 16.09 Fair CLR 29.4 22.8 68% 33 76.1 1013.1
14 21:52 S 15 16.09 Fair CLR 30.6 22.8 63% 35 76.07 1012.9
14 20:52 S 11 16.09 Fair CLR 31.7 22.8 59% 36 76.05 1012.7
14 19:52 S 13 16.09 Fair CLR 33.3 22.8 54% 38 76.05 1012.6
14 18:52 S 13 G 28 16.09 Fair CLR 34.4 23.3 37.2 34.4 52% 40 76.07 1012.8
14 17:52 S 20 G 35 16.09 Fair CLR 35.6 22.8 48% 41 76.07 1012.9
14 16:52 S 22 G 41 16.09 Fair CLR 36.7 21.7 42% 41 76.07 1013.0
14 15:52 SW 17 G 35 16.09 Fair CLR 36.7 22.2 43% 42 76.12 1013.5
14 14:52 SW 15 G 37 16.09 Fair CLR 36.1 22.2 45% 41 76.17 1014.3
14 13:52 SW 20 G 33 16.09 Fair CLR 35.6 22.2 46% 40 76.23 1014.7
14 12:52 SW 19 G 30 16.09 Fair CLR 35 22.8 35 23.9 49% 40 76.33 1016.2
14 11:52 S 17 G 31 16.09 Fair CLR 33.3 23.3 56% 39 76.28 1015.8
14 10:52 S 17 16.09 Fair CLR 31.1 22.8 61% 35 76.3 1015.9
14 09:52 S 13 16.09 Fair CLR 28.3 22.8 72% 32 76.38 1017.2
14 08:52 S 11 16.09 Fair CLR 26.7 22.2 76% 29 76.38 1017.2
14 07:52 S 11 16.09 Fair CLR 25.6 21.7 79% 27 76.38 1017.2
14 06:52 S 13 16.09 Fair CLR 24.4 21.1 26.7 23.3 82% 25 76.35 1016.9
14 05:52 S 11 16.09 Fair CLR 23.9 21.1 84% 24 76.35 1016.7
14 04:52 S 9 16.09 Fair CLR 24.4 21.1 82% 25 76.3 1016.1
14 03:52 S 9 16.09 Fair CLR 25 21.1 79% 26 76.3 1016.1
14 02:52 S 11 16.09 Fair CLR 25.6 21.1 76% 27 76.35 1016.6
14 01:52 S 13 16.09 Fair CLR 26.1 20.6 72% 28 76.4 1017.3
14 00:52 S 11 16.09 Fair CLR 26.7 20.6 32.2 26.7 69% 28 76.4 1017.5
13 23:52 S 11 16.09 Fair CLR 27.2 20 65% 29 76.43 1017.7
13 22:52 S 13 16.09 Fair CLR 27.8 20 63% 29 76.4 1017.6
13 21:52 S 11 16.09 Fair CLR 28.9 20 59% 31 76.38 1017.2
13 20:52 S 11 16.09 Fair CLR 29.4 20.6 59% 32 76.35 1016.7
13 19:52 S 11 16.09 Fair CLR 30.6 20.6 55% 33 76.38 1017.1
13 18:52 S 13 16.09 Fair CLR 32.2 21.7 33.9 27.2 54% 36 76.35 1016.8
13 17:52 S 19 16.09 Fair CLR 33.3 21.7 51% 37 76.33 1016.6
13 16:52 S 13 G 30 16.09 Fair CLR 33.3 21.7 51% 37 76.38 1016.9
13 15:52 S 24 G 39 16.09 Fair CLR 33.3 20.6 47% 36 76.43 1017.8
13 14:52 S 22 G 41 16.09 Fair CLR 32.2 21.7 54% 36 76.48 1018.3
13 13:52 S 15 G 28 16.09 Fair CLR 30 22.2 63% 33 76.53 1019.1
13 12:52 S 17 16.09 Mostly Cloudy FEW033 SCT070 BKN110 27.8 21.7 27.8 23.9 69% 30 76.53 1019.3 0.05
13 11:52 Calm 16.09 Fair CLR 27.2 22.2 74% 30 76.68 1021.3
13 10:52 SE 7 16.09 Fair CLR 27.2 22.2 74% 30 76.63 1020.6
13 09:52 Vrbl 9 16.09 Fair CLR 25.6 22.2 82% 27 76.61 1020.1 0.05
13 08:52 S 9 16.09 Fair CLR 25 21.7 82% 26 76.56 1019.4
13 07:52 S 9 16.09 Mostly Cloudy FEW034 BKN090 BKN110 23.9 21.7 88% 24 76.53 1019.2 0.05
13 06:52 S 17 G 31 16.09 Light Rain CLR 24.4 21.1 26.7 23.3 82% 25 76.48 1018.4
13 05:52 S 11 16.09 Fair CLR 23.3 20.6 85% 76.48 1018.4
13 04:52 S 13 G 28 16.09 Fair CLR 25.6 20.6 74% 27 76.38 1016.9
13 03:52 S 13 G 33 16.09 Fair CLR 26.7 20 67% 28 76.35 1016.8
13 02:52 S 13 16.09 Fair CLR 26.1 20.6 72% 28 76.33 1016.3
13 01:52 S 9 16.09 Fair CLR 26.1 21.1 74% 28 76.35 1016.7
13 00:52 S 7 16.09 Fair CLR 26.7 20.6 32.8 26.7 69% 28 76.35 1016.6
12 23:52 Vrbl 9 16.09 Fair CLR 27.8 20 63% 29 76.33 1016.4
12 22:52 S 9 16.09 Fair CLR 28.9 20 59% 31 76.33 1016.3
12 21:52 S 11 16.09 Fair CLR 28.9 19.4 57% 30 76.28 1015.9
12 20:52 S 11 16.09 Fair CLR 30 19.4 53% 32 76.25 1015.4
12 19:52 S 13 16.09 Fair CLR 31.1 20 52% 33 76.23 1015.0
12 18:52 S 19 G 35 16.09 Fair CLR 32.8 21.1 34.4 32.8 50% 36 76.17 1014.5
Date Time (cdt) Wind (kph) Vis. (km) Weather Sky Cond. Air Dwpt Max. Min. Relative Humidity Wind Chill (°C) Heat Index (°C) altimeter (cm) sea level (mb) 1 hr 3 hr 6 hr
6 hour
Temperature (ºC) Pressure Precipitation (cm)